Погода в Бильмаке

Украина / Запорожская область     47°21′45″N   36°39′11″E
темп.,
°C
ветер,
м/с
пор.,
м/с
влажн.,
%
обл.,
%
осадки,
мм/ч
давл.,
гПа
погр.,
м
13 мая, чт
чт1300:00+8юв348941 0.0 101353
03:00+7вюв128859 0.0 101313
06:00+9вюв228429 0.0 101329
09:00+15ююв34635 0.0 1013588
12:00+20ююв345015 0.0 10131119
15:00+21ююв444699 0.0 10121308
18:00+19юв455979 0.0 1012548
21:00+14в337896 0.0 101236
14 мая, пт
пт1400:00+13в34890 0.0 101151
03:00+14вюв39935 0.0 1011172
06:00+14вюв379776 0.0 1010155
09:00+20юв3474100 0.0 1010316
12:00+24ююв455077 0.0 1010833
15:00+26ю454083 0.0 10101133
18:00+23ююз455146 0.0 1010367
21:00+15ююз33816 0.5 101126
15 мая, сб
сб1500:00+14з33693 0.3 101121
03:00+15зсз3679100 0.3 1012107
06:00+13сз47770 0.0 1012120
09:00+20ссз22540 0.0 1013501
12:00+24зюз2242100 0.0 10141528
15:00+25юз233964 0.0 10132097
18:00+24ююз335124 0.0 1012514
21:00+17з22685 0.0 101311
16 мая, вс
вс1600:00+16ссз227158 0.0 101220
03:00+15ссв337612 0.0 101143
06:00+16св497684 0.0 1011172
09:00+23в686264 0.0 1009580
12:00+26в565696 0.0 10081222
15:00+28в6748100 0.0 10061589
18:00+24в686195 0.0 1005772
21:00+19всв4117632 0.0 1004213
17 мая, пн
пн1700:00+17вюв31176100 0.3 1004205
03:00+17всв3681100 0.3 1003113
06:00+16юв5118094 0.4 1003321
09:00+19ююв578694 1.1 1004443
12:00+22ю7870100 0.0 1005769
15:00+24ю666097 0.0 10061149
18:00+20ююз587168 0.1 1007500
21:00+14ююв4897100 0.1 1010212